Wind_Speed
14 11 7 4 3 2 1 1 1 1 2 3 4 5 5 6 6 7 8 8 9 9 10 10 11 12 13 14 15 16 17 18 19 20 21 22 23 24 25 25 26 26 26 26 27 28 28 29 30 32 34 36 37 38 39 40 40 41 41 41 40 40 40 39 37 36 35 34 35 36 35 35 36 37 37 36 37 39 41 43 45 47 48 48 49 50 49
7 4 2 3 2 1 1 0 1 2 3 4 4 5 5 6 7 7 8 9 9 10 10 11 12 13 14 15 16 17 19 20 21 22 23 23 24 25 25 25 26 26 27 28 29 30 31 32 33 35 37 38 39 40 40 41 41 41 40 38 37 37 37 38 37 36 35 34 36 37 37 36 37 39 39 38 38 40 42 44 46 49 50 50 51 51 50
1 3 3 3 2 1 1 0 2 3 3 4 5 5 6 6 7 7 8 9 10 11 12 13 14 15 16 17 18 20 21 22 23 23 24 24 24 25 25 26 27 28 30 31 32 33 35 36 37 38 39 39 40 41 41 40 39 38 37 36 35 34 33 35 36 37 36 36 37 39 39 37 37 39 41 42 42 43 44 46 48 49 50 50 50 51 52
4 3 2 2 1 1 0 1 2 3 4 5 5 6 6 6 7 8 9 10 11 12 13 14 16 17 18 19 20 21 22 23 23 24 24 25 25 26 28 29 31 32 32 33 35 36 37 39 39 40 40 40 40 39 38 37 36 35 34 34 33 32 31 32 34 34 35 36 36 38 40 40 40 41 43 44 45 45 45 46 47 48 49 48 48 50 51
3 2 2 1 1 1 1 2 2 3 4 5 6 6 6 6 7 9 10 11 13 14 15 17 18 19 20 20 21 21 22 22 23 24 26 27 28 30 31 33 34 34 35 36 37 38 39 40 40 40 39 38 37 36 35 34 33 32 32 32 32 32 30 31 32 32 34 35 36 39 42 43 44 44 44 45 45 45 45 45 45 46 47 47 47 49 50
2 1 2 1 1 0 2 3 4 4 5 6 6 6 7 8 9 11 12 14 15 16 17 18 19 19 19 20 21 21 22 24 25 27 28 30 31 33 34 35 36 37 38 39 38 38 38 37 37 36 35 34 33 32 31 31 31 31 31 31 32 31 30 31 31 32 34 37 39 41 43 44 45 45 44 45 45 44 43 43 43 45 46 47 48 49 51
2 2 2 1 1 2 3 4 5 5 5 6 6 7 9 10 12 13 14 15 16 17 17 17 18 19 20 21 22 24 25 27 28 30 31 33 34 36 37 39 39 39 38 37 36 34 33 32 31 31 30 30 30 30 29 30 30 30 30 30 31 31 31 33 33 34 37 39 40 42 44 44 44 44 43 44 44 43 43 42 43 44 46 48 49 50 52
3 3 2 2 2 3 4 5 5 6 6 7 8 10 11 12 13 14 15 15 16 16 17 18 19 21 22 24 25 26 28 29 31 33 35 37 39 40 39 38 36 34 32 31 30 30 29 28 28 28 28 28 29 29 28 28 28 29 30 30 32 33 34 36 37 38 39 40 40 42 44 43 43 43 42 42 43 43 43 43 44 46 47 49 50 51 53
3 2 2 2 3 4 5 5 6 7 9 9 10 12 12 13 13 13 14 15 16 18 19 20 22 23 24 25 27 28 30 32 34 37 39 40 39 37 33 31 29 29 28 28 28 27 27 28 28 28 28 28 28 28 28 28 29 30 31 33 35 37 38 39 40 40 40 41 41 42 44 44 43 41 40 41 42 43 44 45 46 48 50 51 53 55 57
2 2 3 3 4 5 6 7 8 9 10 10 11 11 12 12 13 14 16 17 18 20 21 23 24 25 26 27 29 30 32 35 38 39 38 36 32 29 27 27 27 27 27 27 27 27 27 27 27 27 27 27 27 28 29 30 31 32 34 36 37 39 40 41 41 40 40 40 41 42 43 44 43 40 39 41 42 43 44 46 48 50 52 55 57 60 62
2 3 4 5 6 7 8 9 9 9 10 10 10 11 12 14 16 17 18 19 20 22 23 23 25 26 28 29 31 34 36 38 38 35 31 28 26 25 26 26 26 27 27 27 27 26 26 25 25 26 27 27 28 30 31 33 34 35 36 38 39 40 40 41 41 41 40 40 40 40 41 42 41 40 40 41 43 45 46 49 52 54 55 57 60 62 64
3 4 5 6 7 7 8 8 8 9 10 11 12 14 15 17 18 19 20 21 22 23 23 24 26 28 30 32 34 37 38 36 32 28 25 24 24 25 26 26 26 26 26 26 25 25 25 25 26 27 29 30 31 32 33 34 35 36 37 38 39 40 40 40 41 41 41 41 41 41 41 41 40 38 39 41 44 47 49 51 54 56 57 58 60 63 66
5 5 6 7 7 7 8 9 10 11 13 14 16 17 18 19 20 21 22 22 23 24 25 26 28 30 33 35 37 36 33 29 26 24 24 25 25 26 26 26 25 25 24 24 25 25 26 26 28 29 30 32 33 33 34 35 35 36 37 38 39 39 40 40 40 40 40 41 42 42 43 43 41 40 42 44 47 49 51 52 54 57 58 60 63 67 71
6 6 7 7 8 9 10 12 13 15 16 17 18 19 20 21 21 22 23 24 24 26 27 29 31 34 36 36 34 31 27 25 24 24 25 25 25 25 25 24 24 24 24 25 26 27 28 29 30 31 32 33 34 34 34 35 35 36 37 38 39 39 40 40 40 41 41 41 41 41 43 44 43 44 47 49 50 53 55 57 58 61 63 65 68 71 74
7 8 8 10 11 13 14 15 17 18 19 19 20 21 21 22 23 24 25 25 27 29 31 32 34 35 34 31 29 26 24 24 24 24 25 24 24 24 24 24 24 25 26 27 28 29 30 31 33 33 33 34 35 35 35 35 35 36 37 38 39 39 39 40 40 41 41 41 41 42 44 45 45 47 49 51 52 54 57 59 60 63 66 68 70 73 76
9 10 12 13 15 16 17 18 19 19 20 21 22 23 24 25 25 26 27 29 30 32 32 33 32 30 28 26 24 24 23 23 23 23 24 23 23 23 24 24 25 27 28 29 30 31 32 33 34 34 34 34 35 35 36 36 37 37 37 37 38 38 38 39 40 40 40 42 42 44 46 47 47 48 50 51 52 54 57 60 60 63 67 71 72 74 76
12 14 15 16 17 18 19 20 21 22 23 24 25 26 26 27 28 29 29 30 30 30 29 28 27 25 24 23 22 22 22 22 22 22 23 23 24 24 25 26 27 28 30 30 31 32 32 33 33 34 33 34 35 36 37 38 38 38 38 37 37 37 38 38 39 39 40 42 43 44 47 47 47 49 50 51 53 55 59 61 62 63 67 72 74 77 79
15 16 17 19 20 21 22 23 24 25 25 26 26 27 27 27 27 27 26 26 25 25 24 23 22 22 21 21 21 21 21 22 22 23 24 24 25 26 27 28 29 30 30 31 32 32 32 32 32 33 34 35 36 37 37 38 39 39 39 38 38 38 39 39 38 38 40 42 44 46 47 47 47 50 51 51 53 57 60 64 66 67 69 73 76 79 81
17 18 19 20 21 22 22 23 23 24 24 24 24 24 23 23 23 22 22 22 22 21 21 21 20 20 20 21 21 21 22 22 23 24 25 26 27 28 29 29 30 30 31 31 31 31 32 32 33 34 36 37 37 38 37 38 38 39 39 39 39 40 40 40 39 40 42 44 46 47 47 47 48 51 54 55 57 60 63 66 69 72 73 75 78 80 81
18 19 19 20 20 20 21 21 21 21 21 21 21 20 20 20 20 20 20 20 20 20 20 20 20 20 21 21 22 22 23 24 25 26 27 27 28 29 29 30 30 30 30 30 30 31 32 34 35 36 37 38 39 39 38 38 38 39 39 40 40 40 40 41 42 43 45 47 48 48 48 50 51 53 56 59 61 64 66 68 70 73 75 77 78 80 81
18 18 19 19 19 19 19 19 19 19 19 19 19 19 19 19 19 19 19 20 20 20 20 20 21 21 22 23 23 24 24 25 26 26 27 28 28 29 29 30 30 30 30 31 32 33 34 36 37 38 38 38 39 40 40 39 38 39 39 39 40 40 41 42 44 46 47 47 48 50 51 53 56 58 60 62 65 67 69 70 71 73 75 77 78 79 80
18 18 19 19 19 19 19 18 18 18 18 18 19 18 18 19 19 19 20 20 20 21 21 21 22 22 23 23 24 24 25 25 26 26 27 28 28 29 29 29 30 31 31 33 34 35 36 37 38 38 39 39 39 39 40 40 40 40 40 40 40 41 42 43 45 46 47 48 48 51 53 55 58 61 63 64 66 67 69 71 73 75 77 78 79 80 80
18 19 19 20 20 19 19 19 19 19 19 19 19 19 19 19 20 20 20 20 21 21 22 22 23 23 23 24 24 25 25 26 26 26 26 27 27 28 28 29 30 31 32 34 35 36 37 38 39 39 39 40 40 39 40 40 40 40 40 40 40 41 43 44 45 45 47 49 50 52 55 57 60 62 64 65 66 68 70 73 75 77 78 79 79 80 81
19 19 19 20 20 20 20 20 20 20 20 20 21 21 21 21 21 21 21 21 22 22 23 23 23 24 24 24 25 25 25 25 25 25 26 26 27 28 28 29 31 32 33 35 36 37 38 39 39 40 40 40 40 40 40 40 39 39 40 40 41 42 43 44 44 45 46 49 51 53 56 59 61 62 64 66 67 70 72 74 76 77 78 79 80 81 82
19 19 19 20 20 20 20 20 20 21 21 21 21 21 21 21 21 22 22 22 23 23 23 24 24 24 24 24 24 24 24 25 25 25 26 27 27 29 30 31 32 33 35 36 37 38 39 39 40 40 40 40 40 40 40 40 39 40 40 41 41 42 42 43 44 45 48 50 52 54 57 60 62 64 66 68 70 72 74 76 77 77 78 79 81 83 84
19 19 20 20 20 21 21 21 21 21 21 21 21 21 21 22 22 22 23 23 23 23 23 23 23 23 23 23 23 23 24 24 25 26 26 27 29 30 31 32 33 35 36 37 38 39 40 40 41 41 40 40 40 40 39 39 39 40 40 41 41 42 43 43 45 47 49 52 53 55 57 59 63 66 68 71 72 74 76 77 78 78 79 80 82 83 85
20 21 21 22 22 22 22 23 23 23 23 22 22 22 22 22 23 23 23 23 23 23 22 22 22 22 23 23 23 24 24 25 26 27 28 29 30 32 32 34 35 36 37 38 39 40 41 41 41 41 41 40 40 40 39 39 39 40 40 40 41 42 43 45 47 49 51 54 56 58 60 62 64 67 70 72 74 75 76 77 78 79 80 81 82 83 83
23 24 24 24 24 25 25 25 25 25 25 25 25 24 24 24 24 24 23 23 23 23 22 22 22 23 23 24 25 25 26 27 27 29 30 31 32 33 34 35 36 37 38 39 40 41 41 41 41 41 41 40 40 39 39 39 39 39 40 41 42 43 45 47 49 52 54 57 59 62 64 65 67 69 71 73 75 76 77 78 78 79 80 81 83 83 81
26 27 27 27 28 28 28 28 28 28 28 27 27 27 27 26 26 26 25 25 24 24 24 23 24 24 25 25 26 27 27 28 29 30 31 32 33 34 35 37 38 39 40 41 41 42 42 42 42 41 40 40 40 40 40 40 39 39 40 41 43 45 48 50 52 54 56 58 61 63 66 68 69 71 72 73 75 76 77 78 78 79 80 82 83 82 80
28 29 30 30 30 31 32 32 32 32 31 31 30 30 29 28 28 27 27 26 26 26 25 25 25 25 26 27 27 28 29 30 31 32 33 34 36 36 37 38 39 40 41 42 42 42 42 42 42 41 41 40 40 40 40 40 39 40 41 43 44 47 50 52 54 56 58 60 62 64 66 68 70 72 73 74 75 77 77 78 78 80 81 82 82 81 78
28 29 30 31 32 32 33 34 34 35 35 34 34 33 32 31 30 29 29 29 28 27 27 27 27 27 28 28 29 30 31 31 33 34 35 36 37 38 39 40 41 42 42 43 43 42 42 42 42 42 41 40 40 40 39 39 40 41 42 44 46 49 52 54 56 58 60 61 63 65 67 69 71 72 74 75 76 77 78 78 79 81 81 82 81 79 76
28 29 30 31 31 32 33 34 35 36 36 37 37 36 35 34 34 33 32 31 30 29 29 29 29 30 30 30 31 32 33 34 35 36 37 38 39 40 41 42 43 43 43 43 43 43 42 43 42 41 41 41 40 39 39 39 41 42 44 45 48 51 53 55 57 59 61 63 64 66 68 70 72 73 75 76 77 78 79 79 80 81 82 82 80 77 74
28 29 30 31 31 32 33 33 34 35 37 37 38 38 37 37 37 36 35 34 33 32 32 32 32 32 33 33 34 35 35 36 38 38 39 40 41 42 43 44 44 44 44 44 43 43 43 43 42 41 41 40 39 38 38 40 42 43 45 47 50 52 55 57 58 60 62 64 66 68 69 71 73 75 76 76 77 78 79 80 81 82 82 81 78 74 72
27 29 30 31 31 32 33 33 34 35 36 37 38 39 39 39 39 38 38 36 35 34 34 34 34 35 35 35 36 37 37 38 39 40 41 42 43 44 45 45 45 45 44 44 44 44 43 42 41 40 40 39 38 38 39 41 43 45 47 49 51 54 56 58 59 61 63 65 67 69 71 73 74 75 76 77 78 79 80 81 82 83 82 79 75 72 71
27 28 29 31 31 32 32 33 34 34 35 37 38 39 40 40 40 40 40 39 37 37 36 36 36 37 37 37 38 38 39 40 41 42 43 44 44 45 46 46 45 45 44 45 45 44 43 42 40 39 38 38 38 39 40 42 44 46 49 51 53 55 57 59 61 63 65 67 69 70 72 74 75 76 76 77 78 79 80 82 84 84 82 78 73 71 70
26 27 28 30 31 32 32 34 35 35 35 37 38 39 41 42 42 42 42 41 40 39 39 38 38 38 39 39 40 40 41 42 43 43 44 45 46 46 46 46 46 45 45 45 44 43 42 41 39 38 37 38 39 40 42 44 46 48 50 52 55 57 59 61 63 64 66 68 70 71 73 74 75 76 77 78 79 80 81 83 84 83 79 75 71 70 70
26 27 28 29 31 32 33 34 35 36 36 37 39 40 41 43 44 44 44 43 43 42 41 40 40 40 41 41 41 42 42 43 44 44 46 46 47 47 47 47 46 45 45 44 43 42 41 40 38 37 37 39 40 42 43 45 47 50 52 54 57 59 61 63 64 66 67 69 71 72 73 75 76 76 77 78 79 80 82 84 84 80 75 71 69 68 69
26 27 28 29 30 33 34 35 36 37 37 38 40 41 42 44 45 46 46 46 45 44 43 42 42 42 42 42 42 42 43 44 44 45 46 47 47 47 47 47 46 46 45 44 43 42 40 38 37 37 38 40 41 43 45 47 49 51 54 56 59 61 63 64 66 67 69 71 72 73 74 75 76 77 77 78 79 81 83 84 81 76 72 69 67 68 68
26 27 28 29 31 33 35 36 37 38 39 40 41 42 44 45 47 48 48 48 47 46 44 43 42 42 42 42 42 42 43 44 45 46 47 47 47 47 47 47 46 46 44 43 42 41 39 38 37 38 39 41 42 44 46 49 51 54 56 58 60 62 64 66 67 69 71 72 74 75 76 77 77 78 78 79 80 83 84 83 78 73 69 67 67 68 69
27 28 29 30 31 33 35 36 38 40 41 42 43 44 46 47 49 50 50 50 49 48 45 44 43 43 43 43 43 44 44 45 46 47 47 47 47 47 47 47 46 45 43 42 41 40 38 37 38 39 41 42 44 46 48 51 54 56 58 59 61 63 65 67 69 70 72 73 75 76 77 78 79 79 79 80 82 84 84 81 75 70 67 67 67 68 69
28 29 30 31 32 34 36 38 39 41 43 44 45 46 47 49 50 52 52 52 52 50 48 47 46 45 45 45 45 46 46 47 47 47 47 47 47 47 47 46 46 44 42 41 40 39 38 38 39 41 43 44 46 48 50 53 55 57 59 61 63 64 66 68 70 71 72 74 75 76 77 78 79 79 80 81 83 84 83 78 72 68 67 67 67 69 70
29 30 32 33 33 35 38 39 40 42 44 45 46 48 49 50 52 53 54 54 53 52 50 49 48 47 47 47 47 47 48 47 47 47 48 48 48 47 47 46 44 42 41 40 39 38 38 39 40 42 44 46 48 50 52 54 56 58 61 62 64 65 67 69 70 72 73 75 76 77 78 78 79 80 80 82 83 84 81 76 70 67 66 67 68 69 69
31 32 33 34 35 37 39 40 41 43 45 46 47 49 50 52 54 55 56 56 55 53 51 50 49 49 48 48 48 48 48 48 48 48 49 48 48 47 46 44 42 41 40 39 38 38 39 40 42 43 45 47 49 51 53 55 58 60 62 63 65 66 68 70 71 72 74 75 77 77 78 78 78 80 81 82 83 82 79 73 69 67 67 67 68 69 69
32 33 35 35 36 38 40 41 42 44 45 47 48 50 51 53 55 56 57 56 55 54 52 51 50 50 50 49 49 49 49 49 49 49 49 48 47 46 44 42 41 40 39 37 37 38 40 41 43 45 47 49 51 53 55 57 59 61 63 64 66 67 69 70 71 73 74 76 77 77 78 78 78 80 81 82 83 81 76 71 67 66 67 67 68 69 69
34 35 36 36 37 39 41 42 43 45 46 47 49 51 53 55 56 57 58 58 56 55 53 52 51 51 51 50 50 50 50 51 50 49 48 48 46 44 42 41 40 39 37 37 37 39 41 42 44 46 48 51 53 55 57 58 60 62 63 65 67 68 70 71 72 74 75 76 77 77 77 78 78 79 80 82 82 80 75 70 67 66 66 67 68 69 69
36 36 37 38 39 41 42 43 45 46 47 49 51 52 54 56 58 59 59 59 57 55 54 53 53 52 52 51 51 51 51 51 50 49 48 46 44 42 41 40 39 38 37 37 38 40 42 44 46 48 50 52 54 56 58 60 62 63 65 66 67 69 70 72 73 75 76 77 77 77 77 78 78 79 80 81 81 78 73 69 66 66 66 67 68 68 68
37 37 38 39 41 42 43 44 46 47 48 50 52 53 55 58 59 60 60 59 57 56 55 54 54 53 52 52 52 52 52 51 50 48 46 43 42 41 41 40 39 37 37 38 40 42 44 46 47 49 51 54 56 58 60 61 63 64 65 67 68 70 71 72 74 75 76 77 77 77 77 78 78 78 79 80 80 77 71 68 66 66 67 67 68 68 68
38 38 39 41 42 43 44 46 47 48 49 51 53 55 57 59 60 61 60 59 57 56 56 55 54 53 52 52 53 53 52 50 48 45 43 42 42 42 41 39 38 38 38 40 42 43 45 47 49 51 53 55 57 59 61 63 64 65 66 67 69 71 72 73 75 76 77 77 77 77 77 77 77 78 79 79 79 75 70 67 66 67 67 67 67 68 69
38 39 40 41 42 44 45 46 47 48 50 52 54 56 58 60 61 61 60 59 58 57 56 55 54 53 53 53 53 53 51 48 44 43 42 43 43 42 40 38 38 38 40 41 43 45 46 49 50 52 54 56 59 61 62 64 65 66 67 69 70 71 73 74 76 77 77 77 77 77 76 76 77 78 78 78 77 74 69 66 66 67 67 67 67 68 70
38 39 40 41 43 44 45 47 48 49 51 53 55 58 60 61 61 60 59 59 58 58 57 55 54 53 53 53 53 51 47 43 42 42 44 43 42 40 39 38 39 40 41 43 45 46 48 50 52 54 56 58 60 62 64 64 65 66 68 69 71 72 74 75 76 77 78 77 77 76 76 76 76 77 78 78 77 73 69 66 66 67 67 67 68 69 71
39 39 40 42 44 45 46 48 49 51 52 55 57 59 61 61 61 60 59 59 59 58 57 55 54 54 54 53 51 47 43 42 43 45 45 43 40 39 38 39 40 42 43 45 46 48 50 52 53 55 57 59 61 63 64 65 66 67 69 70 72 73 75 76 77 78 78 77 76 76 76 76 76 77 78 78 76 72 68 66 66 67 67 67 69 70 72
39 40 41 43 44 46 47 49 50 52 54 56 58 60 61 61 60 60 59 59 59 58 57 55 55 54 53 50 46 43 43 45 46 45 43 41 39 39 39 40 42 43 45 46 48 50 52 53 55 57 59 61 62 64 64 65 66 68 70 71 73 74 76 77 78 78 78 77 76 76 76 76 76 77 77 77 76 71 67 65 66 66 66 67 68 70 73
Wind_Direction
288 283 271 243 208 193 217 269 282 297 300 306 315 318 315 313 313 316 317 315 316 318 317 316 316 316 317 316 314 313 312 312 311 310 309 308 308 307 307 307 307 307 308 307 307 306 306 306 305 304 304 305 305 306 306 307 307 306 306 306 306 306 306 306 305 304 304 304 303 302 303 304 304 304 305 307 309 310 310 310 309 308 308 308 307 308 309
282 264 197 167 168 175 180 218 288 297 304 316 320 317 312 313 317 319 318 317 318 318 317 317 318 317 317 315 313 311 311 310 309 308 308 307 307 307 307 307 308 308 308 307 307 306 305 305 304 304 305 305 305 306 306 306 306 306 306 306 307 307 307 308 307 306 306 306 305 304 305 308 308 308 309 310 311 311 310 309 308 307 308 308 307 307 306
186 140 140 143 154 154 157 242 296 305 316 323 318 314 314 314 318 321 319 318 318 318 318 318 318 316 314 312 311 310 309 309 308 308 308 308 308 307 307 307 307 307 307 307 306 305 305 305 305 305 305 305 305 305 305 305 305 306 306 307 307 308 309 309 309 309 310 310 309 309 309 311 311 310 311 312 312 311 309 308 307 307 308 308 307 306 305
132 125 122 120 135 152 224 291 308 318 321 318 314 314 315 317 320 320 317 316 316 316 317 316 315 313 312 311 310 310 310 310 310 309 309 309 308 307 307 307 307 307 306 306 306 305 305 304 304 304 303 303 304 304 305 305 306 307 307 307 308 308 310 309 310 312 313 312 312 312 311 312 312 311 312 312 311 311 309 308 308 307 307 307 306 305 305
131 104 95 111 147 216 292 316 325 324 319 317 318 318 317 318 319 316 314 315 315 314 314 314 312 312 312 311 311 312 312 312 311 310 309 308 307 307 306 306 306 306 306 305 305 304 303 303 303 302 303 303 304 305 306 307 307 308 308 308 308 309 310 310 311 313 313 312 312 312 311 312 312 312 313 312 311 311 310 310 309 308 307 307 306 306 306
109 88 102 125 151 299 331 333 326 321 320 320 320 319 316 316 316 314 313 314 314 313 314 314 313 314 315 314 314 314 313 311 310 309 307 306 306 306 306 307 307 306 306 305 304 303 303 303 303 303 305 305 306 307 308 308 309 309 309 309 309 310 311 311 312 314 313 312 313 312 311 311 312 313 313 313 312 312 311 311 309 308 308 307 308 308 309
107 107 106 96 36 345 333 327 321 320 319 318 319 316 314 314 314 314 314 315 316 317 318 318 318 318 317 315 314 312 311 309 309 308 307 307 307 307 308 308 308 307 306 306 305 305 305 306 306 307 307 307 308 308 309 309 310 310 310 311 311 312 313 313 313 314 313 313 313 311 311 312 312 313 313 313 313 312 312 312 311 310 310 310 311 312 312
105 96 76 33 352 331 322 318 317 316 316 315 314 312 312 314 316 318 320 321 322 322 321 320 318 316 315 313 312 311 310 309 309 308 308 309 310 310 310 310 310 309 309 310 310 310 310 310 310 309 309 309 309 310 311 311 312 313 313 314 314 314 315 314 315 316 314 314 313 311 311 312 312 314 315 314 314 313 313 313 311 311 311 311 312 312 312
88 60 16 346 330 321 317 317 315 313 313 313 313 314 317 321 323 324 325 324 322 320 318 317 315 313 312 311 311 311 311 310 311 311 311 312 312 312 313 313 313 314 314 314 314 314 314 313 312 312 312 312 313 314 314 315 316 316 316 317 316 316 316 315 316 317 316 315 314 313 312 313 314 317 318 315 314 314 315 314 313 313 312 313 314 314 313
44 4 341 332 327 322 319 319 317 316 317 318 320 324 326 327 326 325 322 320 318 316 315 314 313 311 311 311 311 311 312 312 313 314 314 314 315 315 316 316 316 316 316 315 315 315 315 314 315 315 316 317 317 317 318 318 319 319 319 318 317 316 316 316 316 317 317 316 315 315 315 315 316 319 320 317 316 316 315 314 314 314 315 316 317 318 317
6 348 336 329 326 323 321 321 321 323 326 327 329 329 327 324 322 320 318 316 315 314 312 311 310 310 311 312 312 312 314 315 316 316 317 317 318 318 318 318 317 317 316 316 316 316 316 317 318 318 318 319 319 319 320 320 320 320 319 317 317 316 317 317 317 317 317 316 316 315 315 316 318 321 321 319 317 316 315 316 316 317 319 322 322 321 320
354 339 333 331 329 329 328 329 330 332 331 329 327 324 322 319 318 316 315 314 312 311 310 309 309 310 310 311 312 314 315 317 318 319 319 319 319 319 319 319 318 318 318 318 318 318 319 320 320 321 320 320 320 320 320 320 319 319 318 317 317 317 318 317 317 317 317 317 316 316 317 319 322 323 321 318 317 317 318 319 319 320 322 322 321 321 321
347 341 339 338 338 339 338 335 333 330 327 324 321 320 318 317 316 314 313 312 310 308 308 308 309 309 310 311 313 315 316 317 319 319 319 319 320 320 320 320 320 320 320 321 321 321 321 321 321 321 320 319 319 319 319 319 319 319 318 318 318 318 318 317 317 318 318 319 319 319 319 321 323 323 320 319 320 319 318 318 319 321 323 323 323 323 324
358 353 350 346 342 338 334 330 327 324 322 320 318 317 316 315 314 312 311 310 308 307 307 308 308 309 311 313 315 316 317 317 318 319 319 320 321 321 322 322 322 322 322 323 323 322 322 321 320 320 320 319 318 319 320 321 321 321 320 319 318 318 318 319 319 320 321 321 321 321 320 322 324 324 322 321 322 322 322 322 323 325 326 325 325 325 325
2 354 347 340 334 330 326 323 321 320 319 317 316 315 314 313 312 311 309 308 307 306 307 307 309 310 313 315 317 318 319 319 319 320 321 322 323 323 324 324 323 323 323 323 323 322 321 321 321 320 322 322 321 322 322 322 322 321 320 319 319 320 320 321 321 322 322 321 321 321 321 323 326 325 323 323 325 326 325 326 328 328 327 325 325 325 325
349 341 335 330 327 324 322 320 319 317 316 314 313 312 311 310 309 308 307 306 306 306 308 309 311 314 317 319 320 321 321 321 322 322 323 324 324 325 325 325 324 324 323 323 323 322 322 322 322 322 324 324 323 323 323 322 322 321 321 321 321 321 322 323 322 322 322 322 322 322 322 325 326 324 323 325 327 327 325 326 328 328 326 325 325 324 324
338 333 329 326 324 321 319 317 315 314 312 311 309 309 308 308 307 307 307 307 308 310 312 314 317 319 321 322 323 323 323 324 324 324 325 325 325 325 326 325 324 323 322 322 323 323 323 323 324 324 325 325 324 323 323 322 322 322 322 323 323 323 323 323 323 323 322 322 323 322 323 325 325 323 324 326 327 326 325 325 326 326 325 324 324 324 325
332 329 326 324 321 319 316 315 313 311 310 309 309 309 309 309 310 310 312 314 315 317 319 321 323 324 325 325 325 325 325 325 325 325 325 325 324 325 325 324 323 323 323 323 324 324 325 326 325 325 325 325 324 323 323 323 323 323 324 324 324 324 324 324 324 323 322 322 322 323 324 325 325 324 325 327 326 325 325 325 326 326 325 325 325 326 327
331 329 326 324 322 320 318 316 315 314 313 313 313 314 314 316 317 319 320 322 323 325 326 327 327 327 327 326 326 326 326 326 325 325 325 325 324 324 324 324 324 324 324 325 326 326 326 326 326 325 325 325 324 324 324 325 324 324 325 325 325 325 325 324 324 323 323 323 323 323 324 326 326 326 327 327 327 326 326 327 327 327 327 327 327 328 328
336 334 332 330 328 326 324 323 323 323 323 323 323 323 324 325 326 327 328 329 330 330 330 329 328 327 326 326 326 326 326 325 325 325 325 325 325 325 325 325 326 326 327 328 328 328 327 327 327 326 325 325 325 325 325 326 325 325 325 325 326 326 325 325 324 324 324 324 324 325 327 328 327 327 328 328 328 328 328 328 327 327 328 328 329 329 329
345 344 343 341 338 337 336 336 336 336 335 334 333 332 331 331 331 332 332 332 332 331 330 329 327 326 326 326 326 326 326 325 325 325 326 327 327 327 328 328 329 330 330 330 330 329 328 328 327 326 326 326 326 325 326 326 326 326 326 326 326 326 325 325 325 325 325 326 327 329 330 330 329 329 330 330 330 329 328 328 328 328 328 329 329 330 330
355 354 353 353 353 352 351 350 349 348 346 344 343 342 341 339 337 336 335 334 332 331 331 330 328 328 328 327 327 326 326 326 326 327 327 328 328 329 329 330 330 331 330 330 329 329 328 327 326 326 326 326 326 326 326 327 327 327 327 327 327 326 325 325 326 327 327 328 331 332 331 330 330 330 331 330 330 329 329 328 329 329 329 330 331 332 332
2 0 360 -0 1 -0 359 358 357 355 354 353 351 350 348 345 343 340 338 337 335 334 332 331 330 329 329 327 327 326 326 326 327 327 328 328 329 330 330 330 330 330 330 329 329 328 327 327 326 327 327 327 328 328 327 327 328 327 327 327 326 326 325 326 328 329 330 330 332 332 331 330 330 330 330 330 329 329 329 329 330 331 331 332 333 333 333
7 6 5 4 3 2 1 0 358 357 356 354 351 350 347 345 342 340 338 336 335 333 332 331 330 329 328 328 328 327 327 327 328 328 329 330 330 330 331 331 330 329 329 328 328 327 327 327 327 327 327 328 328 328 327 328 328 327 326 326 326 325 326 328 329 330 330 331 332 332 330 330 329 329 329 329 329 329 330 331 332 333 334 334 334 334 333
10 9 8 7 6 4 3 1 358 357 355 353 350 348 345 343 341 338 336 335 334 332 331 330 330 330 330 330 331 330 330 331 331 331 332 332 332 332 331 331 330 329 328 328 328 327 327 328 328 328 328 328 328 328 328 328 327 327 326 326 326 327 328 329 330 330 331 331 331 331 330 330 329 329 329 329 330 331 332 333 334 334 334 334 334 334 333
13 12 11 9 8 6 4 2 359 357 354 352 349 347 344 342 340 338 337 336 335 334 333 333 334 334 334 335 335 335 335 334 334 334 334 333 333 332 331 330 329 329 328 328 328 328 328 328 328 328 328 328 328 328 328 327 326 326 326 327 327 329 329 330 330 331 331 330 330 329 329 329 329 330 330 331 332 333 334 335 335 335 335 335 334 334 333
21 19 18 15 13 10 8 6 3 0 357 354 351 348 346 343 342 341 340 339 339 339 338 338 338 339 338 338 338 337 337 336 336 335 334 333 333 332 331 330 330 329 329 329 329 329 329 329 328 328 328 328 328 328 327 327 326 327 328 328 329 330 330 330 330 331 331 331 330 330 330 331 331 331 332 333 334 335 335 335 335 335 335 334 334 334 333
30 28 25 23 20 17 14 12 9 7 4 1 358 355 352 350 348 346 344 344 343 343 343 342 341 341 340 339 339 338 337 337 336 335 334 333 333 332 331 331 331 330 330 330 330 330 329 328 328 328 328 328 328 328 328 328 328 328 329 330 330 330 330 331 332 332 332 332 332 332 332 333 333 333 334 334 335 336 335 335 335 335 334 334 334 334 333
36 34 31 29 26 24 21 19 16 14 11 9 6 4 1 359 356 354 351 350 348 347 347 345 343 342 341 341 340 339 338 337 336 335 334 334 333 333 333 332 332 332 331 331 330 329 329 329 329 329 328 328 328 329 328 329 329 329 330 330 331 332 332 333 333 333 333 333 334 334 334 334 334 335 335 336 336 336 336 335 335 335 335 334 334 333 332
38 36 34 32 30 28 26 24 21 19 17 14 12 9 7 5 2 0 359 356 354 353 351 349 347 346 345 343 342 341 339 338 337 336 336 335 335 334 333 333 333 332 331 331 330 330 329 329 329 329 329 329 330 330 329 329 330 330 331 332 333 333 333 333 334 334 334 335 335 335 335 335 336 336 336 336 336 336 336 335 335 335 335 335 334 333 331
36 34 33 31 30 28 26 25 23 21 19 17 15 12 10 7 5 3 1 359 357 356 354 352 350 349 347 345 343 342 340 339 338 338 337 336 335 334 333 333 333 332 332 331 331 330 330 330 329 329 330 331 330 330 330 331 331 332 333 333 334 334 334 334 334 335 335 335 336 335 335 336 337 337 337 336 336 336 335 335 335 335 335 334 333 332 331
33 31 30 28 27 25 24 23 22 20 19 17 15 13 11 9 7 4 2 359 357 355 354 352 350 348 347 345 343 342 340 339 338 338 336 335 334 333 333 333 332 332 332 332 331 331 330 330 330 330 331 331 330 331 331 332 332 333 333 334 334 335 335 335 335 335 335 335 336 336 336 336 337 337 337 336 336 336 335 335 335 335 335 334 333 331 330
29 28 26 25 23 22 20 19 18 17 17 16 14 13 11 9 7 5 2 359 358 355 353 351 349 348 346 344 343 341 339 338 337 336 335 335 334 333 333 333 332 332 332 332 331 331 331 331 331 331 331 331 331 331 332 332 333 333 334 334 335 335 335 335 336 336 336 336 336 336 337 337 338 338 337 336 336 336 336 335 335 335 334 333 332 331 330
24 23 22 21 19 18 17 16 14 14 13 13 12 11 9 8 6 5 2 360 358 356 354 351 349 347 345 344 342 340 338 337 336 335 334 334 334 333 332 332 332 332 332 331 331 331 331 332 331 331 331 331 332 332 333 333 333 334 334 335 336 336 335 336 336 336 336 336 337 337 338 338 338 338 337 336 336 336 336 335 335 335 334 333 332 331 330
20 19 18 17 16 15 13 12 11 10 10 9 8 8 7 6 5 4 2 0 358 356 354 351 349 347 345 343 341 340 338 336 335 334 333 333 333 332 331 331 331 331 331 331 331 332 332 332 332 331 331 332 333 334 334 334 334 334 335 335 335 335 335 336 336 336 336 337 338 338 339 339 338 338 337 337 336 336 336 335 335 334 334 333 332 331 331
16 15 14 14 13 12 11 10 9 7 6 6 6 5 5 5 4 3 2 0 358 356 354 352 350 347 345 342 341 339 337 335 334 333 332 332 331 331 330 330 331 331 331 331 332 333 333 333 333 332 332 333 333 334 334 334 334 335 335 335 336 336 336 336 337 337 337 338 339 339 339 338 338 338 337 337 336 336 336 335 335 334 334 333 333 332 332
12 11 10 10 9 9 8 7 7 5 4 3 3 3 2 3 3 2 1 0 358 356 354 352 349 347 344 342 340 338 336 334 333 332 331 330 330 329 330 330 331 332 332 332 334 335 334 333 333 333 332 333 334 334 334 335 335 335 336 336 336 337 336 337 337 338 338 339 339 339 339 338 338 338 338 337 337 336 336 336 335 335 334 333 333 333 332
8 7 7 6 6 6 6 5 4 3 2 1 1 1 0 0 1 0 360 359 358 355 353 351 349 346 344 341 339 337 335 333 332 331 330 329 329 329 329 330 331 332 333 333 335 335 334 333 333 333 333 334 334 334 335 335 335 336 337 337 337 337 337 337 338 339 339 339 339 339 338 338 338 338 338 337 337 337 337 337 336 335 334 334 334 334 333
5 4 4 3 3 2 3 2 2 1 1 360 359 359 358 358 358 358 358 358 356 355 353 351 348 346 343 341 338 337 335 333 331 330 329 329 329 329 330 331 332 334 334 335 335 335 334 334 334 333 333 334 334 334 335 335 336 337 338 338 338 338 338 338 339 339 339 339 339 339 339 338 339 339 339 338 338 338 338 337 336 335 335 334 334 335 334
3 2 1 1 1 360 360 360 359 359 359 358 357 357 357 356 356 356 356 355 355 354 352 350 348 346 344 342 339 337 335 333 332 330 330 330 330 330 332 333 334 336 336 335 335 335 334 334 334 333 333 334 334 335 337 337 338 338 339 338 338 338 338 339 340 340 339 339 339 339 339 339 339 339 339 339 339 339 339 338 336 336 335 335 335 335 335
1 360 359 360 359 358 357 357 357 357 356 356 355 355 355 354 354 354 354 353 353 353 352 350 348 347 345 342 340 338 336 334 332 331 331 331 332 332 334 335 336 336 336 335 335 335 335 335 334 334 334 335 336 337 338 339 339 339 339 338 338 339 339 340 340 340 340 340 340 339 339 339 339 339 339 339 340 340 339 338 337 336 336 336 336 336 336
359 358 358 358 357 356 355 355 355 354 354 354 353 353 352 352 352 352 352 352 352 351 351 349 348 346 344 342 340 338 336 334 333 332 332 333 333 334 336 337 337 336 336 335 335 335 335 334 334 334 335 336 337 338 339 339 339 339 338 339 339 339 340 340 340 339 340 340 340 340 340 340 340 339 340 340 341 340 340 338 337 337 336 336 336 336 336
358 357 356 356 356 355 354 353 353 352 352 352 351 351 350 350 350 350 350 351 351 350 349 348 347 345 343 341 339 337 336 335 334 333 334 334 335 336 337 337 337 336 336 335 335 335 334 334 335 336 336 337 338 338 339 339 339 339 339 339 339 340 340 340 340 340 340 340 340 340 340 340 340 340 340 341 341 341 340 339 338 337 337 337 336 336 336
357 356 355 354 354 353 352 351 351 350 350 349 349 349 349 349 349 349 349 349 349 349 348 347 346 344 343 341 339 337 336 335 335 335 336 336 337 338 338 337 336 336 336 336 335 335 334 335 336 337 337 338 338 339 339 339 339 339 339 339 339 339 339 340 340 340 340 340 340 340 340 340 340 340 341 341 342 341 340 338 338 337 337 337 337 337 337
355 354 353 352 351 351 350 349 349 349 348 348 347 347 347 347 348 348 348 348 348 348 347 347 345 344 342 340 339 337 337 336 337 337 338 338 339 339 338 337 336 336 336 336 335 335 335 336 337 337 338 338 338 339 339 339 339 339 339 339 339 339 339 340 340 340 340 340 340 340 340 341 341 341 341 342 342 342 340 339 338 338 337 337 337 337 338
353 352 351 350 349 349 349 348 347 347 347 346 346 346 346 346 347 347 347 347 347 347 347 346 345 343 341 340 338 338 338 338 339 339 339 340 340 340 338 336 336 336 337 337 336 336 336 337 337 338 338 338 338 338 339 339 339 339 340 339 339 339 339 340 340 340 341 341 340 340 341 341 341 341 342 342 343 342 340 339 338 338 338 338 338 338 339
350 349 348 348 348 347 347 346 346 346 345 345 345 345 345 346 346 346 347 347 347 347 346 345 344 343 341 339 339 339 339 340 340 341 342 342 341 340 338 337 337 338 338 338 337 337 337 337 338 338 338 338 338 338 339 339 340 340 340 339 339 339 339 340 340 341 341 341 341 341 341 342 342 342 342 343 343 342 340 339 339 338 339 339 339 339 340
348 347 346 346 346 345 345 344 344 344 344 344 345 345 345 345 345 346 346 346 346 346 346 345 343 342 341 340 340 341 341 341 342 343 344 344 341 339 338 338 339 339 339 338 338 338 338 338 338 338 338 338 338 339 339 340 340 340 339 339 339 340 340 340 340 341 341 341 341 341 342 342 342 342 343 344 344 342 340 340 339 339 339 340 340 340 340
345 345 344 344 343 343 343 343 343 343 343 344 344 344 344 345 345 345 345 345 345 345 345 344 343 342 341 341 341 342 342 343 345 346 345 343 341 340 340 340 340 340 340 339 339 338 338 338 338 338 338 339 339 339 340 340 340 340 340 340 340 340 340 340 341 341 341 341 341 342 342 342 342 343 344 345 344 342 341 341 341 340 340 340 340 341 341
343 342 342 341 341 341 342 341 342 342 343 343 343 344 344 344 345 345 345 345 345 345 344 343 343 342 342 342 343 343 345 346 347 346 344 343 341 342 342 341 341 341 341 340 339 338 338 338 338 338 339 339 340 340 340 340 340 339 340 340 340 340 340 341 341 341 341 342 342 342 342 342 343 343 344 345 345 343 342 342 342 341 341 341 341 342 342
340 340 340 340 340 340 340 341 341 342 342 343 343 343 343 344 344 345 344 344 344 344 344 343 343 342 343 344 345 346 348 348 347 345 344 344 344 344 344 343 342 341 341 340 338 338 337 338 338 339 339 340 340 340 340 340 339 340 340 340 340 340 341 341 341 342 342 342 343 342 342 342 343 344 344 345 345 344 343 343 342 342 342 342 342 342 343
338 338 338 338 339 339 340 340 341 342 342 342 342 343 343 344 344 344 344 344 344 344 343 343 343 344 345 346 348 349 349 348 347 346 346 347 347 346 345 344 343 341 340 339 338 338 338 338 338 339 340 340 340 340 340 340 340 340 340 340 341 341 341 342 342 342 343 343 343 343 342 343 343 344 345 346 346 345 344 343 343 343 343 343 343 343 343
Height
5782 5781 5781 5781 5781 5781 5781 5781 5781 5782 5782 5782 5781 5781 5781 5781 5780 5779 5779 5778 5777 5777 5776 5775 5774 5773 5773 5772 5770 5769 5768 5767 5766 5764 5763 5761 5760 5758 5756 5755 5753 5751 5749 5747 5746 5744 5742 5740 5738 5735 5733 5730 5728 5726 5723 5720 5718 5715 5712 5710 5707 5703 5700 5699 5697 5694 5692 5689 5685 5683 5681 5678 5675 5672 5671 5669 5666 5662 5659 5655 5651 5647 5645 5642 5639 5636 5633
5781 5781 5780 5781 5781 5781 5781 5781 5782 5782 5782 5782 5781 5781 5781 5780 5779 5779 5778 5778 5777 5776 5775 5774 5774 5773 5772 5771 5769 5768 5767 5765 5764 5762 5761 5759 5758 5756 5754 5752 5750 5749 5747 5745 5743 5740 5739 5737 5734 5732 5729 5727 5724 5721 5719 5716 5713 5711 5708 5705 5703 5699 5696 5693 5691 5689 5688 5685 5681 5678 5677 5675 5671 5668 5666 5665 5662 5659 5655 5651 5647 5643 5640 5637 5633 5631 5628
5781 5780 5781 5781 5781 5781 5782 5782 5782 5782 5781 5781 5781 5781 5780 5780 5779 5778 5778 5777 5776 5775 5775 5774 5773 5772 5771 5769 5768 5767 5765 5764 5762 5761 5759 5757 5756 5754 5752 5750 5748 5746 5744 5742 5739 5737 5735 5732 5730 5728 5725 5722 5720 5717 5714 5711 5709 5706 5704 5701 5699 5696 5693 5690 5686 5684 5682 5680 5676 5673 5671 5670 5668 5664 5661 5659 5657 5655 5651 5647 5643 5639 5636 5632 5628 5625 5622
5781 5781 5781 5781 5782 5782 5782 5782 5782 5782 5781 5781 5781 5780 5780 5779 5779 5778 5777 5777 5776 5775 5774 5773 5772 5770 5769 5768 5766 5765 5763 5762 5760 5758 5757 5755 5753 5751 5749 5747 5745 5743 5741 5739 5736 5733 5731 5728 5726 5723 5720 5718 5715 5713 5710 5708 5705 5702 5700 5698 5696 5693 5691 5687 5684 5682 5678 5676 5673 5669 5666 5665 5663 5660 5658 5655 5652 5649 5646 5642 5638 5634 5631 5629 5623 5618 5617
5781 5782 5782 5782 5782 5782 5782 5782 5782 5782 5781 5781 5780 5780 5779 5779 5778 5777 5777 5776 5775 5774 5773 5771 5770 5769 5768 5766 5765 5763 5762 5760 5758 5756 5755 5753 5751 5749 5746 5744 5742 5740 5737 5735 5732 5730 5727 5724 5721 5718 5716 5713 5711 5709 5706 5704 5702 5699 5697 5694 5692 5690 5688 5685 5683 5680 5676 5673 5670 5667 5663 5660 5658 5656 5654 5651 5647 5644 5640 5636 5633 5629 5626 5624 5620 5614 5611
5782 5782 5783 5783 5783 5783 5782 5782 5782 5782 5781 5780 5780 5779 5779 5778 5778 5777 5776 5775 5774 5773 5771 5770 5769 5767 5766 5764 5763 5762 5760 5758 5756 5754 5752 5750 5748 5746 5743 5741 5738 5736 5733 5731 5728 5725 5722 5720 5717 5714 5712 5710 5708 5705 5703 5701 5699 5696 5694 5691 5689 5687 5685 5683 5680 5678 5674 5670 5667 5663 5660 5657 5654 5651 5649 5645 5642 5639 5636 5632 5628 5625 5621 5618 5615 5611 5606
5783 5783 5783 5783 5783 5783 5783 5782 5782 5781 5781 5780 5779 5779 5778 5778 5777 5776 5775 5774 5772 5771 5770 5769 5767 5766 5764 5763 5761 5759 5758 5756 5754 5752 5749 5747 5744 5742 5739 5737 5734 5731 5728 5726 5723 5721 5719 5716 5714 5711 5709 5707 5705 5703 5701 5698 5696 5693 5691 5689 5686 5684 5682 5679 5677 5675 5671 5667 5664 5659 5656 5653 5650 5648 5645 5641 5637 5634 5630 5627 5623 5619 5616 5612 5610 5607 5601
5784 5784 5784 5784 5783 5783 5783 5782 5782 5781 5780 5780 5779 5778 5778 5777 5776 5775 5773 5772 5771 5770 5769 5767 5766 5764 5763 5761 5759 5757 5755 5753 5751 5748 5746 5743 5741 5738 5735 5732 5730 5727 5724 5722 5720 5717 5715 5713 5711 5709 5707 5704 5702 5700 5698 5696 5693 5691 5688 5686 5683 5680 5678 5675 5672 5670 5667 5663 5660 5655 5652 5650 5647 5644 5641 5636 5632 5628 5625 5622 5618 5615 5612 5608 5604 5602 5598
5784 5784 5784 5784 5784 5783 5783 5782 5781 5780 5780 5779 5778 5777 5777 5776 5775 5774 5772 5771 5770 5768 5767 5766 5764 5762 5761 5759 5757 5755 5753 5750 5748 5745 5742 5739 5737 5734 5731 5729 5726 5724 5722 5719 5717 5715 5712 5710 5708 5706 5704 5702 5700 5697 5695 5693 5691 5688 5685 5682 5679 5676 5673 5670 5667 5665 5662 5659 5655 5651 5647 5645 5642 5640 5636 5632 5628 5624 5620 5616 5612 5608 5606 5602 5598 5594 5589
5785 5785 5784 5784 5784 5783 5782 5781 5781 5780 5779 5778 5778 5777 5776 5775 5774 5772 5771 5770 5768 5767 5765 5764 5762 5760 5758 5757 5754 5752 5750 5747 5744 5741 5738 5736 5733 5731 5728 5726 5724 5721 5719 5717 5715 5712 5710 5708 5706 5703 5701 5699 5697 5695 5692 5690 5687 5685 5682 5678 5675 5672 5669 5666 5663 5661 5658 5654 5651 5646 5642 5640 5637 5635 5631 5627 5623 5619 5616 5611 5607 5603 5600 5595 5591 5585 5579
5785 5785 5784 5784 5783 5783 5782 5781 5780 5780 5779 5778 5777 5776 5775 5774 5772 5771 5770 5768 5767 5765 5763 5762 5760 5758 5756 5754 5752 5749 5747 5744 5741 5738 5735 5733 5730 5728 5726 5724 5722 5719 5717 5715 5713 5710 5708 5706 5704 5702 5699 5697 5695 5692 5690 5687 5684 5681 5678 5674 5671 5668 5665 5661 5658 5656 5653 5650 5647 5643 5639 5636 5633 5630 5626 5621 5618 5614 5610 5605 5600 5597 5594 5588 5583 5577 5572
5785 5785 5785 5784 5783 5783 5782 5781 5780 5779 5778 5777 5776 5775 5774 5772 5771 5769 5768 5766 5765 5763 5761 5760 5758 5756 5754 5752 5749 5746 5744 5741 5738 5735 5733 5731 5729 5726 5724 5722 5720 5717 5715 5713 5711 5708 5706 5704 5702 5699 5697 5694 5692 5689 5687 5684 5681 5678 5674 5671 5667 5664 5661 5658 5654 5651 5648 5645 5642 5639 5635 5632 5629 5626 5622 5617 5613 5609 5605 5600 5594 5590 5588 5584 5578 5572 5566
5786 5785 5785 5784 5783 5783 5782 5781 5780 5779 5777 5776 5775 5774 5772 5771 5769 5768 5766 5764 5763 5761 5759 5758 5756 5753 5751 5749 5746 5743 5741 5738 5736 5733 5731 5729 5727 5725 5722 5720 5718 5715 5713 5711 5709 5707 5704 5702 5700 5697 5695 5692 5689 5687 5684 5681 5678 5674 5670 5667 5663 5660 5657 5654 5650 5647 5644 5640 5636 5633 5629 5626 5624 5621 5617 5612 5608 5603 5600 5597 5592 5586 5581 5576 5570 5564 5556
5786 5786 5785 5784 5783 5782 5781 5780 5779 5778 5776 5775 5773 5772 5770 5769 5767 5766 5764 5763 5761 5759 5757 5755 5753 5751 5748 5746 5743 5741 5738 5736 5734 5732 5730 5727 5725 5723 5720 5718 5716 5714 5711 5709 5707 5705 5702 5700 5697 5695 5693 5689 5686 5683 5681 5677 5674 5671 5666 5663 5660 5656 5653 5650 5646 5643 5639 5636 5632 5628 5624 5622 5619 5615 5610 5606 5602 5596 5590 5587 5583 5577 5571 5566 5560 5555 5548
5787 5786 5785 5784 5783 5782 5780 5779 5778 5776 5775 5773 5772 5770 5769 5767 5765 5764 5762 5760 5759 5757 5755 5752 5750 5748 5745 5743 5741 5738 5736 5734 5732 5730 5728 5726 5723 5721 5719 5716 5714 5712 5710 5707 5705 5702 5700 5697 5694 5691 5689 5686 5682 5679 5676 5673 5671 5667 5663 5660 5656 5653 5649 5646 5642 5638 5635 5631 5628 5624 5620 5618 5614 5610 5604 5600 5596 5590 5583 5579 5576 5569 5562 5558 5554 5548 5542
5786 5785 5784 5783 5782 5781 5779 5778 5776 5775 5773 5772 5770 5768 5767 5765 5763 5762 5760 5758 5756 5754 5752 5750 5747 5745 5743 5741 5739 5736 5734 5732 5730 5728 5726 5724 5721 5719 5717 5715 5712 5710 5707 5705 5702 5699 5697 5694 5691 5688 5685 5682 5678 5675 5672 5669 5667 5664 5660 5657 5653 5649 5646 5642 5638 5635 5631 5627 5623 5619 5616 5613 5609 5605 5600 5595 5591 5586 5579 5575 5573 5567 5557 5550 5547 5543 5537
5786 5785 5784 5782 5781 5779 5778 5776 5775 5773 5772 5770 5768 5766 5765 5763 5761 5759 5757 5755 5753 5751 5749 5747 5745 5743 5741 5739 5737 5735 5733 5731 5729 5726 5724 5722 5719 5717 5715 5713 5710 5708 5705 5702 5700 5697 5694 5691 5688 5685 5682 5679 5675 5672 5669 5665 5662 5659 5656 5653 5650 5646 5643 5639 5635 5631 5627 5623 5620 5616 5612 5609 5604 5599 5596 5592 5587 5581 5574 5569 5568 5566 5557 5546 5538 5532 5526
5785 5784 5783 5781 5779 5778 5776 5775 5773 5771 5769 5768 5766 5764 5762 5760 5758 5757 5755 5753 5751 5749 5747 5745 5743 5741 5739 5737 5735 5733 5731 5729 5727 5724 5722 5720 5717 5715 5713 5710 5708 5705 5702 5700 5697 5694 5691 5688 5685 5681 5678 5676 5673 5669 5666 5662 5659 5655 5652 5649 5646 5642 5639 5635 5632 5628 5623 5620 5616 5612 5609 5605 5600 5594 5591 5589 5584 5577 5571 5563 5557 5554 5551 5542 5530 5521 5514
5785 5783 5781 5780 5778 5776 5774 5773 5771 5769 5767 5765 5763 5762 5760 5758 5756 5755 5753 5751 5749 5747 5745 5743 5741 5739 5737 5735 5733 5731 5729 5727 5725 5722 5720 5718 5715 5713 5710 5708 5705 5702 5700 5697 5694 5691 5688 5685 5682 5678 5675 5672 5669 5666 5663 5659 5655 5652 5649 5645 5642 5638 5634 5631 5627 5624 5619 5615 5611 5608 5605 5600 5595 5589 5584 5581 5577 5571 5565 5558 5549 5541 5537 5532 5523 5513 5505
5784 5782 5780 5779 5777 5775 5773 5771 5769 5767 5765 5763 5762 5760 5758 5757 5755 5753 5751 5749 5748 5746 5744 5742 5740 5738 5736 5734 5732 5730 5727 5725 5723 5720 5718 5715 5713 5710 5708 5705 5702 5700 5697 5694 5691 5688 5685 5682 5679 5675 5672 5668 5665 5662 5659 5656 5652 5649 5645 5641 5638 5634 5630 5626 5622 5619 5615 5610 5605 5602 5598 5593 5588 5585 5580 5574 5568 5561 5555 5551 5544 5535 5528 5522 5516 5507 5498
5783 5781 5779 5777 5775 5773 5771 5769 5768 5766 5764 5762 5760 5759 5757 5755 5753 5752 5750 5748 5746 5744 5743 5741 5739 5737 5734 5732 5730 5728 5725 5723 5721 5718 5715 5713 5710 5708 5705 5702 5699 5696 5694 5691 5688 5685 5682 5678 5675 5672 5669 5665 5662 5658 5655 5652 5649 5645 5641 5638 5634 5630 5626 5622 5617 5613 5609 5606 5601 5595 5590 5585 5580 5576 5572 5566 5559 5553 5547 5541 5537 5530 5523 5516 5509 5501 5492
5783 5781 5779 5777 5775 5773 5771 5769 5767 5765 5763 5761 5759 5758 5756 5754 5752 5750 5749 5747 5745 5743 5741 5739 5737 5735 5733 5731 5728 5726 5723 5721 5718 5716 5713 5711 5708 5705 5702 5700 5697 5694 5691 5688 5685 5682 5679 5676 5672 5669 5665 5662 5659 5655 5651 5648 5645 5641 5638 5634 5630 5626 5622 5619 5614 5609 5604 5601 5597 5591 5585 5580 5575 5570 5565 5560 5554 5548 5541 5534 5528 5523 5516 5508 5500 5493 5484
5783 5781 5779 5777 5775 5773 5771 5769 5767 5765 5763 5761 5759 5757 5755 5753 5751 5749 5747 5746 5744 5742 5739 5737 5735 5733 5731 5729 5726 5724 5721 5719 5716 5714 5711 5709 5706 5703 5700 5698 5695 5692 5689 5686 5682 5679 5676 5672 5669 5665 5662 5658 5655 5652 5648 5644 5641 5637 5634 5631 5627 5623 5618 5614 5611 5606 5600 5595 5592 5588 5582 5576 5571 5566 5561 5556 5550 5544 5537 5529 5521 5513 5505 5498 5490 5483 5475
5783 5781 5779 5777 5775 5773 5771 5769 5766 5764 5762 5760 5758 5756 5754 5752 5750 5748 5746 5744 5742 5740 5738 5736 5733 5731 5729 5727 5724 5722 5719 5717 5714 5712 5709 5706 5704 5701 5698 5696 5693 5690 5686 5683 5680 5676 5673 5669 5666 5662 5659 5655 5652 5648 5645 5641 5638 5634 5630 5627 5624 5620 5616 5611 5607 5603 5599 5594 5589 5585 5579 5572 5567 5563 5557 5551 5546 5539 5531 5523 5515 5506 5497 5489 5481 5474 5467
5783 5781 5779 5777 5775 5773 5770 5768 5766 5764 5762 5760 5757 5755 5753 5751 5749 5747 5745 5743 5740 5738 5736 5734 5731 5729 5727 5724 5722 5720 5717 5715 5712 5710 5707 5704 5702 5699 5696 5694 5690 5687 5684 5680 5677 5674 5670 5666 5663 5659 5656 5652 5648 5645 5641 5637 5634 5631 5627 5623 5620 5616 5612 5609 5605 5600 5596 5591 5587 5582 5576 5569 5562 5557 5552 5546 5539 5532 5524 5516 5508 5500 5491 5482 5474 5465 5458
5783 5781 5779 5777 5775 5772 5770 5768 5766 5763 5761 5759 5757 5754 5752 5750 5748 5745 5743 5741 5739 5736 5734 5732 5730 5727 5725 5723 5720 5718 5715 5713 5710 5708 5705 5702 5700 5697 5694 5691 5688 5685 5681 5678 5674 5671 5667 5663 5660 5656 5652 5649 5645 5641 5638 5634 5631 5627 5624 5620 5616 5612 5608 5605 5602 5597 5592 5588 5583 5579 5574 5568 5560 5552 5544 5537 5530 5523 5515 5507 5500 5492 5485 5477 5468 5458 5448
5784 5781 5779 5777 5775 5772 5770 5768 5766 5763 5761 5758 5756 5754 5751 5749 5746 5744 5742 5739 5737 5735 5733 5730 5728 5726 5723 5721 5719 5716 5714 5711 5709 5706 5703 5700 5698 5695 5692 5688 5685 5682 5678 5675 5671 5667 5664 5660 5656 5653 5649 5645 5642 5638 5635 5631 5627 5623 5620 5616 5612 5609 5605 5601 5598 5593 5588 5582 5577 5571 5567 5562 5555 5547 5539 5531 5524 5517 5509 5501 5494 5486 5478 5471 5464 5455 5445
5784 5782 5780 5778 5775 5773 5771 5768 5766 5763 5761 5758 5756 5753 5750 5748 5745 5743 5740 5738 5736 5733 5731 5729 5727 5724 5722 5720 5717 5715 5712 5709 5707 5704 5701 5698 5695 5692 5689 5686 5682 5679 5675 5672 5668 5664 5660 5657 5653 5649 5646 5642 5639 5635 5632 5628 5624 5620 5617 5613 5609 5605 5601 5597 5592 5588 5582 5577 5570 5564 5558 5553 5547 5541 5533 5525 5517 5511 5503 5495 5488 5480 5472 5464 5456 5449 5442
5785 5783 5781 5779 5776 5774 5771 5769 5766 5764 5761 5758 5755 5753 5750 5747 5745 5742 5739 5737 5735 5732 5730 5728 5725 5723 5721 5718 5716 5713 5710 5708 5705 5702 5699 5696 5693 5690 5686 5683 5680 5676 5672 5669 5665 5661 5657 5653 5650 5646 5642 5639 5635 5632 5628 5625 5621 5617 5613 5610 5606 5601 5596 5591 5587 5582 5577 5572 5566 5559 5552 5546 5540 5533 5526 5519 5512 5504 5497 5489 5482 5474 5466 5457 5448 5440 5432
5786 5784 5782 5780 5777 5775 5772 5769 5767 5764 5761 5758 5756 5753 5750 5747 5745 5742 5739 5737 5734 5732 5729 5727 5724 5722 5719 5717 5714 5712 5709 5706 5703 5700 5697 5694 5690 5687 5684 5680 5677 5673 5669 5666 5662 5658 5654 5650 5646 5642 5639 5635 5632 5628 5624 5621 5618 5614 5610 5606 5601 5597 5592 5587 5582 5578 5573 5568 5561 5554 5547 5541 5533 5526 5518 5511 5505 5498 5491 5484 5476 5468 5459 5451 5442 5434 5425
5787 5785 5783 5781 5778 5776 5773 5770 5767 5764 5762 5759 5756 5753 5750 5747 5745 5742 5739 5736 5734 5731 5728 5726 5723 5721 5718 5716 5713 5710 5707 5704 5701 5698 5695 5691 5688 5684 5681 5677 5674 5670 5666 5662 5658 5654 5650 5647 5643 5639 5635 5632 5628 5625 5621 5617 5613 5610 5606 5602 5598 5593 5588 5583 5578 5572 5568 5563 5558 5551 5543 5536 5529 5521 5513 5506 5498 5492 5485 5477 5469 5462 5453 5445 5436 5428 5420
5788 5786 5784 5781 5779 5777 5774 5771 5768 5765 5762 5759 5756 5753 5750 5747 5744 5742 5739 5736 5733 5730 5728 5725 5722 5720 5717 5714 5711 5708 5705 5702 5699 5696 5692 5689 5685 5682 5678 5674 5670 5667 5663 5659 5655 5651 5647 5643 5639 5636 5632 5629 5625 5621 5618 5614 5610 5606 5602 5599 5594 5589 5584 5579 5574 5568 5563 5558 5553 5547 5540 5532 5524 5517 5509 5501 5493 5486 5478 5470 5462 5454 5446 5439 5430 5422 5414
5789 5787 5785 5782 5780 5778 5775 5772 5769 5766 5763 5760 5757 5754 5751 5748 5744 5741 5738 5735 5732 5729 5727 5724 5721 5718 5715 5712 5709 5706 5703 5700 5697 5693 5690 5686 5683 5678 5675 5671 5667 5663 5659 5656 5652 5648 5644 5640 5636 5632 5629 5626 5622 5619 5615 5611 5607 5603 5599 5595 5590 5585 5581 5576 5570 5565 5559 5552 5546 5540 5534 5527 5519 5511 5503 5495 5488 5480 5473 5465 5457 5449 5441 5432 5425 5417 5410
5790 5788 5785 5783 5781 5778 5775 5773 5770 5767 5764 5761 5758 5754 5751 5748 5745 5741 5738 5735 5732 5729 5726 5723 5720 5717 5713 5710 5707 5704 5701 5697 5694 5690 5687 5683 5679 5675 5671 5667 5664 5660 5656 5652 5649 5645 5641 5637 5633 5629 5625 5622 5619 5615 5612 5608 5603 5599 5595 5591 5587 5582 5577 5572 5567 5561 5555 5548 5541 5534 5526 5520 5513 5505 5498 5490 5482 5474 5466 5459 5451 5444 5436 5427 5419 5411 5404
5791 5788 5786 5784 5781 5779 5776 5773 5770 5767 5764 5761 5758 5755 5751 5748 5744 5741 5737 5734 5731 5728 5724 5721 5718 5715 5711 5708 5705 5702 5698 5695 5691 5688 5684 5680 5676 5672 5668 5664 5660 5657 5653 5649 5646 5642 5638 5634 5630 5626 5622 5619 5616 5612 5608 5605 5600 5596 5592 5588 5583 5579 5574 5569 5563 5557 5550 5543 5536 5529 5521 5514 5507 5500 5492 5484 5476 5469 5461 5452 5444 5436 5428 5420 5412 5404 5397
5791 5789 5787 5784 5782 5779 5776 5773 5770 5767 5764 5761 5758 5754 5751 5747 5744 5740 5737 5733 5730 5726 5723 5719 5716 5713 5710 5706 5703 5700 5696 5692 5689 5685 5681 5677 5673 5669 5665 5661 5657 5653 5650 5646 5642 5639 5634 5630 5627 5623 5619 5616 5613 5609 5605 5601 5597 5593 5589 5584 5579 5574 5569 5563 5558 5552 5545 5538 5531 5524 5517 5510 5502 5495 5486 5478 5471 5463 5456 5447 5438 5429 5421 5413 5405 5398 5391
5791 5789 5787 5784 5782 5779 5776 5773 5770 5767 5764 5761 5758 5754 5751 5747 5743 5740 5736 5732 5728 5725 5721 5718 5714 5711 5708 5704 5701 5697 5693 5690 5686 5682 5678 5674 5670 5666 5662 5658 5654 5650 5646 5642 5639 5635 5631 5627 5624 5620 5616 5613 5609 5606 5602 5598 5594 5589 5585 5580 5574 5569 5563 5558 5552 5546 5540 5533 5526 5519 5512 5505 5498 5490 5482 5474 5465 5457 5449 5441 5432 5423 5415 5407 5400 5393 5386
5791 5789 5787 5784 5782 5779 5776 5773 5770 5767 5764 5760 5757 5754 5750 5746 5743 5739 5735 5731 5727 5723 5720 5716 5713 5709 5706 5702 5699 5695 5691 5687 5683 5679 5675 5671 5666 5662 5658 5654 5651 5647 5643 5639 5636 5632 5628 5624 5621 5617 5614 5610 5606 5602 5599 5594 5590 5586 5580 5575 5569 5564 5558 5552 5546 5540 5534 5527 5521 5514 5508 5501 5494 5486 5478 5469 5461 5452 5443 5434 5424 5416 5409 5402 5395 5389 5381
5791 5789 5786 5784 5781 5778 5775 5772 5769 5766 5763 5760 5756 5753 5749 5745 5742 5738 5734 5730 5727 5723 5719 5715 5711 5708 5704 5700 5696 5693 5689 5684 5680 5676 5671 5667 5663 5659 5654 5651 5647 5643 5639 5635 5632 5629 5625 5622 5618 5615 5611 5608 5604 5600 5596 5591 5586 5581 5576 5570 5564 5558 5552 5546 5540 5533 5527 5520 5514 5507 5499 5493 5487 5480 5472 5463 5455 5446 5437 5427 5418 5411 5403 5397 5390 5383 5376
5791 5788 5786 5783 5780 5778 5775 5772 5768 5765 5762 5758 5755 5751 5747 5744 5740 5736 5732 5729 5725 5721 5717 5713 5709 5706 5702 5698 5693 5689 5685 5681 5676 5672 5668 5663 5659 5655 5651 5647 5643 5640 5636 5632 5628 5625 5622 5619 5615 5612 5608 5605 5600 5596 5591 5587 5581 5576 5571 5566 5560 5554 5547 5541 5534 5528 5521 5514 5507 5499 5492 5484 5477 5470 5463 5456 5448 5440 5431 5422 5413 5405 5398 5391 5385 5378 5371
5790 5788 5785 5782 5780 5777 5774 5770 5767 5764 5760 5757 5753 5749 5746 5742 5738 5734 5731 5726 5722 5719 5715 5711 5706 5702 5698 5694 5690 5686 5682 5677 5673 5668 5664 5659 5655 5651 5647 5643 5640 5636 5632 5629 5625 5622 5619 5616 5612 5609 5605 5601 5597 5592 5588 5583 5578 5572 5567 5562 5556 5549 5543 5536 5529 5522 5516 5509 5501 5494 5486 5478 5470 5463 5456 5448 5440 5432 5424 5416 5408 5400 5393 5386 5380 5373 5365
5790 5787 5784 5781 5779 5776 5772 5769 5766 5762 5759 5755 5751 5747 5744 5740 5736 5732 5728 5724 5720 5716 5712 5708 5704 5700 5696 5691 5687 5682 5678 5673 5669 5664 5660 5656 5652 5648 5644 5640 5636 5633 5629 5626 5622 5619 5616 5613 5610 5606 5602 5598 5594 5589 5585 5580 5574 5569 5563 5557 5551 5545 5538 5532 5525 5518 5511 5504 5496 5489 5480 5472 5464 5457 5450 5442 5434 5425 5416 5409 5402 5395 5388 5381 5374 5368 5361
5789 5786 5783 5780 5777 5774 5771 5768 5764 5761 5757 5753 5750 5746 5742 5738 5734 5730 5726 5721 5717 5713 5709 5705 5701 5697 5692 5688 5683 5678 5674 5669 5665 5661 5657 5652 5649 5645 5641 5637 5633 5630 5626 5623 5620 5617 5614 5610 5607 5603 5599 5595 5591 5586 5582 5576 5571 5565 5559 5553 5547 5541 5534 5528 5521 5514 5506 5499 5491 5484 5476 5468 5460 5452 5444 5437 5429 5420 5411 5403 5396 5390 5383 5376 5369 5362 5356
5788 5785 5782 5779 5776 5773 5770 5766 5763 5759 5755 5752 5748 5744 5740 5736 5732 5728 5724 5719 5715 5711 5706 5702 5698 5693 5688 5684 5679 5674 5670 5666 5662 5657 5653 5649 5645 5642 5638 5634 5631 5627 5624 5621 5618 5615 5611 5608 5604 5600 5596 5592 5588 5583 5578 5573 5567 5562 5555 5549 5543 5537 5531 5524 5517 5510 5503 5495 5487 5480 5472 5464 5456 5447 5439 5431 5424 5416 5407 5400 5393 5385 5378 5372 5365 5358 5350
5786 5783 5780 5778 5775 5771 5768 5764 5761 5757 5754 5750 5746 5742 5738 5734 5730 5725 5721 5716 5712 5707 5703 5698 5694 5689 5685 5680 5675 5671 5666 5662 5658 5654 5650 5646 5643 5639 5635 5632 5628 5625 5622 5619 5616 5613 5609 5606 5602 5598 5593 5589 5584 5579 5575 5570 5564 5558 5552 5546 5539 5533 5527 5520 5513 5506 5499 5491 5483 5476 5468 5460 5452 5444 5435 5427 5419 5410 5402 5395 5389 5382 5375 5368 5361 5354 5346
5785 5782 5779 5776 5773 5770 5766 5762 5759 5755 5751 5748 5744 5739 5735 5731 5727 5722 5718 5713 5708 5704 5700 5695 5691 5686 5681 5676 5672 5668 5663 5659 5655 5651 5647 5644 5640 5636 5633 5629 5626 5623 5620 5617 5614 5610 5606 5603 5599 5595 5590 5585 5581 5576 5571 5566 5560 5554 5548 5542 5535 5529 5522 5515 5509 5502 5494 5486 5479 5471 5463 5456 5448 5440 5431 5422 5414 5406 5398 5391 5384 5378 5372 5365 5358 5350 5343
5783 5780 5777 5774 5771 5768 5764 5760 5757 5753 5749 5745 5742 5737 5733 5729 5724 5719 5715 5710 5705 5701 5697 5692 5687 5683 5678 5673 5669 5664 5660 5656 5652 5648 5644 5641 5637 5634 5630 5627 5624 5620 5618 5614 5611 5608 5604 5600 5596 5592 5587 5582 5577 5572 5567 5561 5556 5550 5544 5537 5531 5524 5517 5511 5504 5497 5489 5482 5474 5466 5459 5451 5443 5436 5427 5418 5409 5401 5394 5387 5380 5373 5367 5360 5353 5346 5339
5782 5779 5775 5772 5769 5765 5762 5758 5755 5751 5747 5744 5739 5735 5731 5726 5722 5717 5712 5707 5703 5698 5694 5689 5684 5679 5675 5670 5665 5661 5657 5653 5649 5645 5642 5638 5635 5631 5628 5624 5621 5618 5615 5612 5609 5606 5602 5597 5593 5589 5584 5579 5574 5569 5563 5557 5551 5545 5539 5533 5526 5520 5513 5506 5499 5492 5485 5477 5469 5461 5454 5446 5439 5431 5423 5414 5405 5397 5389 5383 5375 5368 5362 5356 5349 5342 5335
5780 5777 5774 5771 5767 5764 5761 5757 5753 5750 5746 5742 5737 5733 5728 5724 5719 5714 5709 5704 5700 5695 5691 5686 5681 5676 5672 5667 5662 5658 5654 5650 5646 5642 5639 5636 5632 5629 5626 5623 5620 5617 5614 5610 5607 5603 5599 5595 5590 5586 5581 5575 5570 5564 5559 5553 5547 5541 5535 5529 5522 5515 5508 5501 5494 5487 5480 5472 5464 5457 5449 5442 5434 5426 5418 5410 5401 5393 5385 5378 5371 5364 5357 5351 5344 5338 5331
5779 5776 5772 5769 5766 5762 5759 5755 5751 5748 5743 5739 5735 5730 5726 5721 5716 5711 5706 5701 5697 5692 5687 5682 5678 5673 5668 5664 5659 5655 5651 5647 5644 5640 5637 5634 5630 5627 5624 5621 5618 5615 5612 5608 5604 5600 5596 5592 5587 5582 5577 5572 5566 5560 5555 5549 5543 5537 5531 5524 5517 5510 5503 5496 5489 5481 5474 5466 5459 5451 5444 5437 5429 5422 5414 5407 5398 5389 5381 5373 5367 5360 5353 5346 5339 5332 5326
5777 5774 5771 5768 5764 5760 5757 5753 5749 5745 5741 5737 5732 5728 5723 5718 5713 5708 5703 5698 5693 5688 5683 5679 5674 5669 5665 5661 5656 5652 5649 5645 5642 5638 5635 5632 5628 5625 5622 5619 5616 5612 5609 5605 5601 5597 5593 5588 5584 5579 5574 5568 5563 5557 5551 5545 5539 5533 5527 5520 5513 5506 5499 5491 5484 5476 5468 5460 5453 5446 5439 5431 5424 5417 5409 5402 5394 5385 5377 5369 5363 5356 5349 5342 5335 5328 5321
5775 5772 5769 5765 5762 5758 5754 5751 5747 5743 5738 5734 5730 5725 5720 5715 5710 5705 5700 5695 5690 5685 5680 5675 5671 5666 5662 5658 5654 5651 5647 5644 5640 5636 5633 5630 5627 5624 5621 5618 5614 5610 5606 5603 5599 5594 5590 5585 5580 5575 5570 5565 5559 5553 5547 5541 5535 5528 5522 5515 5509 5502 5494 5487 5479 5471 5463 5456 5448 5441 5434 5426 5419 5412 5404 5397 5389 5382 5375 5368 5361 5354 5348 5340 5332 5325 5317